Location: Hardenberg
(52.5670°N, 6.6170°E)
Time: 19:38:44
(UTC+02:00)

ISS - Pass Details

Date: 22 May 2021
Orbit: 417 x 422 km, 51.6° (Epoch: 12 June)

Event Time Altitude Azimuth Distance (km) Brightness Sun altitude
Rises 01:20:07 0° 281° (WNW) 2,371 0.2 -17.0°
Reaches altitude 10° 01:22:22 10° 270° (W) 1,505 -0.9 -17.0°
Enters shadow 01:24:15 24° 244° (WSW) 927 -2.3 -17.0°
